Simultaneous Nadir Overpasses (SNOs) Predictions

Prediction of SNOs near equator between AQUA and NPP Satellite Orbit:

Table of predicted SNOs near equator for the next 14.0 days since TLE Epoch: 11/17/2016
Index Date (AQUA) Time (AQUA) AQUA Lat,Lon Date (NPP) Time (NPP) NPP Lat,Lon Distance(km) Time Diff (sec)
1 11/18/2016 15:35:35 -4.76, 149.20 11/18/2016 15:25:59 -4.72, 149.12 10.47 576
2 11/18/2016 16:23:50 0.16, -42.20 11/18/2016 16:15:30 0.10, -42.56 40.12 500
3 11/18/2016 17:11:57 4.36, 126.42 11/18/2016 17:04:52 4.50, 125.81 70.03 425
4 11/18/2016 18:00:13 -8.91, -64.98 11/18/2016 17:54:23 -9.12, -65.86 99.02 350
5 11/21/2016 07:51:41 -3.36, -94.63 11/21/2016 07:42:29 -3.30, -94.80 20.51 552
6 11/21/2016 08:39:55 -1.30, 73.99 11/21/2016 08:31:59 -1.37, 73.54 50.35 476
7 11/21/2016 09:28:03 5.76,-117.40 11/21/2016 09:21:22 5.92,-118.11 80.12 401
8 11/23/2016 23:21:15 12.19,-148.31 11/23/2016 23:11:15 12.20,-148.38 7.77 600
9 11/24/2016 00:07:45 -1.79, 21.59 11/23/2016 23:58:58 -1.77, 21.31 30.69 527
10 11/24/2016 00:56:01 -2.74,-169.83 11/24/2016 00:48:29 -2.84,-170.36 60.57 452
11 11/24/2016 01:44:09 7.21, -1.22 11/24/2016 01:37:52 7.40, -2.01 90.09 377
12 11/26/2016 15:35:45 4.95, -30.87 11/26/2016 15:26:06 4.91, -30.96 10.96 579
13 11/26/2016 16:23:51 -0.35, 137.77 11/26/2016 16:15:28 -0.29, 137.41 40.93 503
14 11/26/2016 17:12:07 -4.18, -53.64 11/26/2016 17:04:59 -4.31, -54.27 70.79 428
15 11/26/2016 18:00:14 8.71, 114.99 11/26/2016 17:54:21 8.93, 114.10 99.92 353
16 11/29/2016 07:51:49 3.41, 85.34 11/29/2016 07:42:35 3.39, 85.15 21.19 554
17 11/29/2016 08:39:57 1.08,-106.05 11/29/2016 08:31:58 1.18,-106.50 51.31 479
18 11/29/2016 09:28:13 -5.60, 62.54 11/29/2016 09:21:29 -5.78, 61.83 81.05 404




NCC Satellite Simultaneous Nadir Overpasses (SNOs) Prediction Service
